Hourly Weather El Puerto de Santa Maria

Today, 8 August, Saturday

Time Temperature Precipitation Wind Pressure Humidity
00:00 +25°C° 0 mm 2 mps 762 mmHg 78%
01:00 +25°C° 0 mm 2 mps 761 mmHg 79%
02:00 +24°C° 0 mm 1 mps 761 mmHg 81%
03:00 +24°C° 0 mm 1 mps 761 mmHg 83%
04:00 +24°C° 0 mm 2 mps 761 mmHg 81%
05:00 +24°C° 0 mm 2 mps 761 mmHg 80%
06:00 +24°C° 0 mm 3 mps 761 mmHg 78%
07:00 +27°C° 0 mm 3 mps 761 mmHg 64%
08:00 +29°C° 0 mm 3 mps 761 mmHg 51%
09:00 +33°C° 0 mm 3 mps 761 mmHg 38%
10:00 +35°C° 0 mm 3 mps 761 mmHg 34%
11:00 +37°C° 0 mm 3 mps 761 mmHg 30%
12:00 +39°C° 0 mm 3 mps 761 mmHg 27%
13:00 +40°C° 0 mm 4 mps 760 mmHg 29%
14:00 +38°C° 0 mm 4 mps 759 mmHg 32%
15:00 +39°C° 0 mm 5 mps 759 mmHg 34%
16:00 +37°C° 0 mm 5 mps 759 mmHg 36%
17:00 +35°C° 0 mm 4 mps 758 mmHg 38%
18:00 +34°C° 0 mm 4 mps 758 mmHg 39%
19:00 +31°C° 0 mm 3 mps 758 mmHg 47%
20:00 +29°C° 0 mm 3 mps 759 mmHg 55%
21:00 +26°C° 0 mm 2 mps 759 mmHg 63%
22:00 +26°C° 0 mm 2 mps 759 mmHg 63%
23:00 +25°C° 0 mm 2 mps 759 mmHg 62%

Tomorrow, 9 August, Sunday

Time Temperature Precipitation Wind Pressure Humidity
00:00 +25°C° 0 mm 2 mps 760 mmHg 62%
01:00 +25°C° 0 mm 2 mps 759 mmHg 63%
02:00 +24°C° 0 mm 2 mps 759 mmHg 64%
03:00 +24°C° 0 mm 2 mps 759 mmHg 66%
04:00 +24°C° 0 mm 2 mps 759 mmHg 64%
05:00 +24°C° 0 mm 2 mps 759 mmHg 63%
06:00 +24°C° 0 mm 2 mps 759 mmHg 62%
07:00 +27°C° 0 mm 2 mps 759 mmHg 52%
08:00 +30°C° 0 mm 2 mps 759 mmHg 42%
09:00 +34°C° 0 mm 2 mps 759 mmHg 31%
10:00 +35°C° 0 mm 2 mps 759 mmHg 31%
11:00 +37°C° 0 mm 3 mps 759 mmHg 31%
12:00 +38°C° 0 mm 4 mps 759 mmHg 31%
13:00 +37°C° 0 mm 4 mps 758 mmHg 33%
14:00 +37°C° 0 mm 5 mps 758 mmHg 35%
15:00 +37°C° 0 mm 5 mps 757 mmHg 37%
16:00 +35°C° 0 mm 5 mps 757 mmHg 39%
17:00 +34°C° 0 mm 5 mps 756 mmHg 42%
18:00 +33°C° 0 mm 4 mps 756 mmHg 45%
19:00 +30°C° 0 mm 4 mps 757 mmHg 51%
20:00 +28°C° 0 mm 3 mps 757 mmHg 57%
21:00 +26°C° 0 mm 2 mps 757 mmHg 63%
22:00 +26°C° 0 mm 2 mps 757 mmHg 62%
23:00 +26°C° 0 mm 2 mps 757 mmHg 61%

Day after tomorrow, 10 August, Monday

Time Temperature Precipitation Wind Pressure Humidity
00:00 +25°C° 0 mm 2 mps 757 mmHg 60%
01:00 +25°C° 0 mm 2 mps 757 mmHg 60%
02:00 +25°C° 0 mm 2 mps 757 mmHg 60%
03:00 +24°C° 0 mm 2 mps 756 mmHg 61%
04:00 +24°C° 0 mm 2 mps 756 mmHg 62%
05:00 +24°C° 0 mm 2 mps 756 mmHg 64%
06:00 +24°C° 0 mm 2 mps 757 mmHg 65%
07:00 +26°C° 0 mm 2 mps 757 mmHg 57%
08:00 +28°C° 0 mm 3 mps 757 mmHg 50%
09:00 +31°C° 0 mm 3 mps 757 mmHg 42%
10:00 +33°C° 0 mm 3 mps 756 mmHg 38%
11:00 +35°C° 0 mm 4 mps 756 mmHg 35%
12:00 +36°C° 0 mm 4 mps 756 mmHg 32%
13:00 +36°C° 0 mm 4 mps 756 mmHg 29%
14:00 +37°C° 0 mm 5 mps 755 mmHg 26%
15:00 +37°C° 0 mm 5 mps 755 mmHg 24%
16:00 +36°C° 0 mm 5 mps 754 mmHg 27%
17:00 +34°C° 0 mm 5 mps 754 mmHg 31%
18:00 +33°C° 0 mm 5 mps 754 mmHg 34%
19:00 +30°C° 0 mm 4 mps 755 mmHg 43%
20:00 +27°C° 0 mm 3 mps 755 mmHg 52%
21:00 +25°C° 0 mm 1 mps 756 mmHg 61%
22:00 +25°C° 0 mm 2 mps 756 mmHg 61%
23:00 +25°C° 0 mm 3 mps 757 mmHg 62%

11 August, Tuesday

Time Temperature Precipitation Wind Pressure Humidity
00:00 +25°C° 0 mm 4 mps 757 mmHg 63%
01:00 +25°C° 0 mm 3 mps 757 mmHg 69%
02:00 +24°C° 0 mm 3 mps 756 mmHg 75%
03:00 +22°C° 0 mm 3 mps 756 mmHg 82%
04:00 +22°C° 0 mm 3 mps 756 mmHg 82%
05:00 +22°C° 0 mm 3 mps 756 mmHg 82%
06:00 +23°C° 0 mm 2 mps 757 mmHg 83%
07:00 +25°C° 0 mm 3 mps 757 mmHg 71%
08:00 +27°C° 0 mm 3 mps 757 mmHg 60%
09:00 +30°C° 0 mm 3 mps 757 mmHg 49%
10:00 +32°C° 0 mm 4 mps 757 mmHg 44%
11:00 +33°C° 0 mm 4 mps 757 mmHg 40%
12:00 +35°C° 0 mm 5 mps 757 mmHg 35%
13:00 +35°C° 0 mm 5 mps 757 mmHg 34%
14:00 +35°C° 0 mm 6 mps 756 mmHg 33%
15:00 +34°C° 0 mm 7 mps 756 mmHg 31%
16:00 +33°C° 0 mm 6 mps 756 mmHg 36%
17:00 +30°C° 0 mm 6 mps 756 mmHg 41%
18:00 +29°C° 0 mm 6 mps 756 mmHg 45%
19:00 +27°C° 0 mm 5 mps 757 mmHg 55%
20:00 +25°C° 0 mm 4 mps 757 mmHg 65%
21:00 +22°C° 0 mm 3 mps 758 mmHg 74%
22:00 +22°C° 0 mm 3 mps 758 mmHg 76%
23:00 +22°C° 0 mm 4 mps 758 mmHg 78%

12 August, Wednesday

Time Temperature Precipitation Wind Pressure Humidity
00:00 +21°C° 0 mm 4 mps 759 mmHg 80%
01:00 +21°C° 0 mm 4 mps 758 mmHg 82%
02:00 +20°C° 0 mm 4 mps 758 mmHg 85%
03:00 +20°C° 0 mm 4 mps 758 mmHg 87%
04:00 +19°C° 0 mm 4 mps 758 mmHg 88%
05:00 +19°C° 0 mm 4 mps 759 mmHg 90%
06:00 +19°C° 0 mm 4 mps 759 mmHg 91%
07:00 +20°C° 0 mm 4 mps 759 mmHg 81%
08:00 +22°C° 0 mm 4 mps 759 mmHg 71%
09:00 +25°C° 0 mm 5 mps 760 mmHg 61%
10:00 +26°C° 0 mm 5 mps 760 mmHg 57%
11:00 +28°C° 0 mm 5 mps 759 mmHg 53%
12:00 +29°C° 0 mm 5 mps 759 mmHg 48%
13:00 +29°C° 0 mm 5 mps 759 mmHg 47%
14:00 +30°C° 0 mm 6 mps 759 mmHg 46%
15:00 +30°C° 0 mm 6 mps 758 mmHg 45%
16:00 +29°C° 0 mm 6 mps 758 mmHg 51%
17:00 +27°C° 0 mm 6 mps 758 mmHg 58%
18:00 +26°C° 0 mm 6 mps 758 mmHg 64%
19:00 +25°C° 0 mm 5 mps 758 mmHg 71%
20:00 +23°C° 0 mm 4 mps 759 mmHg 78%
21:00 +21°C° 0 mm 4 mps 759 mmHg 85%
22:00 +21°C° 0 mm 4 mps 759 mmHg 84%
23:00 +21°C° 0 mm 3 mps 760 mmHg 83%

13 August, Thursday

Time Temperature Precipitation Wind Pressure Humidity
00:00 +21°C° 0 mm 3 mps 760 mmHg 83%
01:00 +21°C° 0 mm 3 mps 759 mmHg 83%
02:00 +21°C° 0 mm 3 mps 759 mmHg 83%
03:00 +20°C° 0 mm 3 mps 759 mmHg 83%
04:00 +20°C° 0 mm 2 mps 759 mmHg 83%
05:00 +20°C° 0 mm 2 mps 759 mmHg 84%
06:00 +19°C° 0 mm 2 mps 759 mmHg 84%
07:00 +23°C° 0 mm 2 mps 760 mmHg 74%
08:00 +25°C° 0 mm 2 mps 760 mmHg 63%
09:00 +27°C° 0 mm 3 mps 760 mmHg 53%
10:00 +29°C° 0 mm 3 mps 760 mmHg 49%
11:00 +30°C° 0 mm 4 mps 759 mmHg 45%
12:00 +32°C° 0 mm 4 mps 759 mmHg 42%
13:00 +32°C° 0 mm 5 mps 759 mmHg 41%
14:00 +32°C° 0 mm 5 mps 758 mmHg 40%
15:00 +32°C° 0 mm 5 mps 758 mmHg 39%
16:00 +30°C° 0 mm 5 mps 758 mmHg 43%
17:00 +29°C° 0 mm 5 mps 758 mmHg 47%
18:00 +28°C° 0 mm 5 mps 758 mmHg 51%
19:00 +26°C° 0 mm 4 mps 758 mmHg 61%
20:00 +24°C° 0 mm 3 mps 758 mmHg 72%
21:00 +21°C° 0 mm 2 mps 759 mmHg 82%
22:00 +21°C° 0 mm 2 mps 759 mmHg 82%
23:00 +20°C° 0 mm 3 mps 759 mmHg 83%
Show more